Home > Weather > Bendigo > Past weeks

Flag for Australia Past Weather in Bendigo, Victoria, Australia — Yesterday and Last 2 Weeks

Now
52 °F

Scattered clouds.


Feels Like: 47 °F
Forecast: 46 / 54 °F
Wind: 14 mph from Southwest

Location: Bendigo Airport Aws

Current Time: Jul 1, 2016 at 12:52:04 PM

Latest Report: Jul 1, 2016 at 12:00 PM


Visibility: N/A

Pressure: 30.17 "Hg

Humidity: 67%

Dew Point: 41 °F

Location of BendigoLocation

Past Weather in Bendigo — Graph

°F

Bendigo Temperature Yesterday

Maximum temperature yesterday: 47 °F (at 3:00 PM)
Minimum temperature yesterday: 44 °F (at 9:00 PM)
Average temperature yesterday: 45 °F

High & Low Weather Summary for the Past Weeks

 TemperatureHumidityPressure
High60 °F (Jun 20, 12:00 PM)98% (Jun 17, 11:00 PM)30.35 "Hg (Jun 17, 11:00 PM)
Low29 °F (Jun 26, 6:00 AM)57% (Jun 29, 2:00 PM)29.50 "Hg (Jun 21, 3:00 PM)
Average47 °F86%29.94 "Hg
* Reported Jun 16 11:00 AM — Jul 1 11:00 AM, Bendigo, Weather by CustomWeather, © 2016

Note: Actual official high and low records may vary slightly from our data, if they occured in-between our weather recording intervals... More about our weather records

Advertising

Bendigo Weather History for the Previous 24 Hours

Scroll right to see more
 ConditionsComfort  
Time TempWeatherWind HumidityBarometerVisibility
11:00 AM
Fri, Jul 1
51 °FCool.12 mph75%30.17 "HgN/A
9:00 AM49 °FOvercast.8 mph84%30.13 "HgN/A
8:00 AM47 °FCool.9 mph91%30.10 "HgN/A
6:00 AM48 °FOvercast.6 mph86%30.03 "HgN/A
5:00 AM47 °FCool.12 mph85%29.99 "HgN/A
3:00 AM46 °FOvercast.9 mph87%29.93 "HgN/A
2:00 AM44 °FQuite cool.6 mph90%29.89 "HgN/A
12:00 AM45 °FOvercast.16 mph84%29.83 "HgN/A
11:00 PM
Thu, Jun 30
44 °FQuite cool.13 mph87%29.84 "HgN/A
9:00 PM44 °FOvercast.9 mph83%29.84 "HgN/A
8:00 PM44 °FQuite cool.8 mph82%29.83 "HgN/A
6:00 PM45 °FOvercast.6 mph90%29.81 "HgN/A
5:00 PM45 °FCool.6 mph93%29.78 "HgN/A
3:00 PM47 °FLow clouds.14 mph94%29.77 "HgN/A
2:00 PM46 °FCool.14 mph92%29.78 "HgN/A
12:00 PM46 °FOvercast.16 mph88%29.86 "HgN/A
Weather by CustomWeather, © 2016

See weather overviewHow to use our weather pages